Regional Weather Roundup
Issued by NWS

Home | Current Version | Previous Version | Text Only | Print | Product List | Glossary On
Versions: 1 2 3 4 5 6 7 8 9 10 11 12 13 14 15 16 17 18 19 20 21 22 23 24 25 26 27 28 29 30 31 32 33 34 35 36 37 38 39 40 41 42 43 44 45 46 47 48 49 50
000
ASUS45 KREV 020510
RWRNV
NEVADA REGIONAL WEATHER ROUNDUP
NATIONAL WEATHER SERVICE RENO NV
1000 PM PDT FRI AUG 01 2014

NOTE: "FAIR" INDICATES FEW OR NO CLOUDS BELOW 12,000 FEET WITH NO
SIGNIFICANT WEATHER AND/OR OBSTRUCTIONS TO VISIBILITY.

NVZ001-003-004-020600-
WESTERN NEVADA

CITY           SKY/WX    TMP DP  RH WIND       PRES   REMARKS
RENO           PTCLDY    82  32  16 W13       30.10R
CARSON CITY    FAIR      75  32  20 E5        30.14R
SLIDE MTN        N/A     57  32  38 W8          N/A
PYRAMID LAKE     N/A     86 N/A N/A W8          N/A
FALLON         MOCLDY    82  43  25 SE15      30.05R
LOVELOCK       CLOUDY    81  45  28 SW10      30.05R HAZE
HAWTHORNE      PTCLDY    79  55  44 CALM      30.09R
$$

NVZ002-CAZ072-073-020600-
NORTHERN AND CENTRAL SIERRA

CITY           SKY/WX    TMP DP  RH WIND       PRES   REMARKS
S. LAKE TAHOE  CLEAR     63  33  32 CALM      30.28R
TRUCKEE        CLEAR     55  34  44 S3        30.26R
SQUAW VLY 8000 NOT AVBL
SUSANVILLE     CLEAR     77  36  22 SW5       30.10
BLUE CANYON    CLEAR     74  31  20 CALM      30.22R
MAMMOTH LAKES  CLOUDY    68  34  28 SW9       30.32R
BRIDGEPORT     FAIR      67  30  25 CALM      30.28R
$$

NVZ030-031-036-020600-
NORTHERN NEVADA

CITY           SKY/WX    TMP DP  RH WIND       PRES   REMARKS
ELKO           CLOUDY    71  43  36 CALM      30.15R
WINNEMUCCA     CLOUDY    80  43  26 E6        30.07R
WENDOVER       MOCLDY    77  45  31 W6        30.11R
$$

NVZ035-037-020600-
CENTRAL NEVADA

CITY           SKY/WX    TMP DP  RH WIND       PRES   REMARKS
ELY            CLOUDY    73  37  27 NW6       30.26R
EUREKA           N/A     73  41  31 S8        30.27R
$$

NVZ013-014-020600-
SOUTH CENTRAL NEVADA

CITY           SKY/WX    TMP DP  RH WIND       PRES   REMARKS
TONOPAH        CLOUDY    74  46  36 E10       30.22F
$$

NVZ017-020-022-020600-
SOUTHERN NEVADA

CITY           SKY/WX    TMP DP  RH WIND       PRES   REMARKS
LAS VEGAS      PTCLDY    97  52  21 S10       29.85R
N. LAS VEGAS   PTCLDY    97  50  20 S8        29.87R
NELLIS AFB     PTCLDY    98  53  21 S6        29.86R
HENDERSON      CLEAR     93  53  25 S10       29.92R
MERCURY        CLEAR     89  38  16 CALM      29.95R
$$



USA.gov is the U.S. government's official web portal to all federal, state and local government web resources and services.